GW0980 Weather Reports


Display with metric or nautical units.
time (UTC)temp
F
wind
direction
speed
MPH
gust
MPH
rain 1hr
in
rain 24hr
in
rain mn
in
humidity
%
barometer
mb
20260901221557 62 300 4.0 12.0 0.00 0.00 0.00 77 1012.3
20260901220050 62 281 4.0 15.0 0.00 0.00 0.00 77 1012.1
20260901214559 62 259 6.0 11.0 0.00 0.00 0.00 77 1012.0
20260901213055 63 274 6.0 13.0 0.00 0.00 0.00 74 1011.8
20260901211552 65 283 4.0 7.0 0.00 0.00 0.00 70 1011.7
20260901210114 64 307 2.0 6.0 0.00 0.00 0.00 71 1011.7
20260901204546 64 284 2.0 10.0 0.00 0.00 0.00 71 1011.7
20260901203053 64 284 3.0 7.0 0.00 0.00 0.00 72 1011.8
20260901201549 64 279 1.0 4.0 0.00 0.00 0.00 74 1011.9
20260901194553 63 292 2.0 6.0 0.00 0.00 0.00 75 1012.0
20260901193049 63 273 2.0 4.0 0.00 0.00 0.00 76 1012.2
20260901191552 63 274 2.0 5.0 0.00 0.00 0.00 77 1012.1
20260901190054 65 290 3.0 9.0 0.00 0.00 0.00 72 1012.1
20260901184554 66 177 0.0 3.0 0.00 0.00 0.00 69 1012.3
20260901183103 66 0 0.0 1.0 0.00 0.00 0.00 70 1012.4
20260901181558 65 286 0.0 1.0 0.00 0.00 0.00 71 1012.3
20260901180053 65 281 0.0 3.0 0.00 0.00 0.00 71 1012.3
20260901174549 64 284 1.0 2.0 0.00 0.00 0.00 75 1012.2
20260901173048 63 0 0.0 1.0 0.00 0.00 0.00 75 1012.3
20260901171542 63 0 0.0 1.0 0.00 0.00 0.00 78 1012.2
20260901170051 62 0 0.0 1.0 0.00 0.00 0.00 80 1012.2
20260901164550 61 0 0.0 1.0 0.00 0.00 0.00 81 1012.1
20260901163059 61 293 0.0 2.0 0.00 0.00 0.00 83 1012.3
20260901161559 60 315 0.0 2.0 0.00 0.00 0.00 85 1012.4
20260901160047 59 294 0.0 2.0 0.00 0.00 0.00 86 1012.5
20260901154612 59 0 0.0 2.0 0.00 0.00 0.00 86 1012.6
20260901153051 59 287 1.0 3.0 0.00 0.00 0.00 87 1012.6
20260901151548 59 0 0.0 3.0 0.00 0.00 0.00 86 1012.5
20260901150105 59 276 0.0 2.0 0.00 0.00 0.00 86 1012.4
20260901144552 59 0 0.0 1.0 0.00 0.00 0.00 87 1012.4
20260901143049 59 274 0.0 2.0 0.00 0.00 0.00 86 1012.3
20260901141600 59 0 0.0 0.0 0.00 0.00 0.00 85 1012.1
20260901140056 59 0 0.0 0.0 0.00 0.00 0.00 85 1011.9
20260901134549 59 0 0.0 0.0 0.00 0.00 0.00 84 1011.9
20260901133051 59 0 0.0 0.0 0.00 0.00 0.00 83 1011.8
20260901131543 59 0 0.0 0.0 0.00 0.00 0.00 84 1011.8
20260901130051 59 0 0.0 3.0 0.00 0.00 0.00 84 1011.8
20260901124550 59 0 0.0 3.0 0.00 0.00 0.00 84 1011.7
20260901123057 59 290 1.0 5.0 0.00 0.00 0.00 84 1011.7
20260901121551 59 295 1.0 3.0 0.00 0.00 0.00 84 1011.8
20260901120107 59 295 1.0 4.0 0.00 0.00 0.00 84 1011.8
20260901114551 59 284 2.0 6.0 0.00 0.00 0.00 83 1011.6
20260901113058 59 287 3.0 9.0 0.00 0.00 0.00 83 1011.6
20260901111600 59 288 3.0 7.0 0.00 0.00 0.00 83 1011.5
20260901110051 59 282 4.0 8.0 0.00 0.00 0.00 82 1011.5
20260901104557 59 295 4.0 9.0 0.00 0.00 0.00 82 1011.4
20260901103059 59 279 5.0 13.0 0.00 0.00 0.00 82 1011.4
20260901101551 59 260 4.0 9.0 0.00 0.00 0.00 82 1011.6
20260901100057 59 288 4.0 6.0 0.00 0.00 0.00 82 1011.5
20260901094555 59 292 3.0 5.0 0.00 0.00 0.00 82 1011.5
20260901093054 59 276 3.0 7.0 0.00 0.00 0.00 82 1011.5
20260901091559 59 285 6.0 11.0 0.00 0.00 0.00 81 1011.2
20260901090205 59 281 6.0 12.0 0.00 0.00 0.00 82 1011.2
20260901084553 59 257 6.0 11.0 0.00 0.00 0.00 82 1011.0
20260901083101 59 278 6.0 11.0 0.00 0.00 0.00 82 1011.1
20260901081548 59 290 7.0 14.0 0.00 0.00 0.00 82 1011.3
20260901074550 59 302 7.0 12.0 0.00 0.00 0.00 83 1011.1
20260901073051 59 307 9.0 22.0 0.00 0.00 0.00 83 1011.1
20260901071549 59 271 7.0 13.0 0.00 0.00 0.00 84 1011.0
20260901070056 59 274 7.0 18.0 0.00 0.00 0.00 84 1010.9
20260901064552 59 257 8.0 17.0 0.00 0.00 0.00 84 1010.5
20260901063055 59 314 8.0 22.0 0.00 0.00 0.00 84 1010.6
20260901061548 58 289 9.0 18.0 0.00 0.00 0.00 84 1010.4
20260901060054 58 284 8.0 15.0 0.00 0.00 0.00 84 1010.2
20260901054548 59 285 8.0 16.0 0.00 0.00 0.00 84 1010.3
20260901053057 59 282 7.0 16.0 0.00 0.00 0.00 84 1010.1
20260901051552 59 278 8.0 16.0 0.00 0.00 0.00 84 1010.3
20260901050049 59 280 9.0 17.0 0.00 0.00 0.00 84 1010.3
20260901044550 59 286 7.0 16.0 0.00 0.00 0.00 84 1010.4
20260901043044 59 276 10.0 21.0 0.00 0.00 0.00 84 1010.4
20260901041552 59 287 7.0 15.0 0.00 0.00 0.00 83 1010.4
20260901040051 59 281 9.0 15.0 0.00 0.00 0.00 82 1010.1
20260901034551 59 316 9.0 18.0 0.00 0.00 0.00 82 1010.0
20260901033050 60 282 9.0 21.0 0.00 0.00 0.00 82 1009.6
20260901031552 60 245 10.0 19.0 0.00 0.00 0.00 81 1009.5
20260901030051 61 257 12.0 24.0 0.00 0.00 0.00 79 1009.2
20260901024549 62 268 10.0 24.0 0.00 0.00 0.00 74 1009.2
20260901023055 64 264 10.0 16.0 0.00 0.00 0.00 71 1009.1
20260901021553 65 279 8.0 20.0 0.00 0.00 0.00 68 1008.7
20260901020053 67 276 9.0 16.0 0.00 0.00 0.00 63 1008.7
20260901014559 68 314 10.0 18.0 0.00 0.00 0.00 61 1008.7
20260901013110 69 271 9.0 19.0 0.00 0.00 0.00 59 1008.6
20260901011549 71 288 9.0 18.0 0.00 0.00 0.00 54 1008.6
20260901010059 72 266 7.0 14.0 0.00 0.00 0.00 51 1008.6
20260901004612 73 278 9.0 21.0 0.00 0.00 0.00 51 1008.5
20260901003054 73 278 11.0 20.0 0.00 0.00 0.00 51 1008.5
20260901001550 74 274 10.0 20.0 0.00 0.00 0.00 50 1008.5
20260901000048 75 294 10.0 20.0 0.00 0.00 0.00 49 1008.3
20260831234550 76 272 8.0 16.0 0.00 0.00 0.00 49 1008.3
20260831233055 77 267 8.0 14.0 0.00 0.00 0.00 49 1008.3
20260831231550 77 293 7.0 19.0 0.00 0.00 0.00 48 1008.4
20260831230055 78 269 9.0 14.0 0.00 0.00 0.00 48 1008.3
20260831224550 79 281 8.0 15.0 0.00 0.00 0.00 46 1008.4
20260831223055 79 305 6.0 13.0 0.00 0.00 0.00 46 1008.4